﻿FRED Graph Observations,,,
Federal Reserve Economic Data,,,
Link: https://fred.stlouisfed.org,,,
Help: https://fredhelp.stlouisfed.org,,,
Economic Research Division,,,
Federal Reserve Bank of St. Louis,,,
,,,
GDPC1_LFWA64TTUSM647S,,,"Real Gross Domestic Product/Working Age Population: Aged 15-64: All Persons for the United States*10000 DOWNLOAD 
 Bil. of Chn. 2012 $/Persons*10000, Quarterly"
,,,
Frequency: Quarterly,,,
observation_date,Change,,GDPC1_LFWA64TTUSM647S
1977-01-01,100.3%,0.3%,0.44941925
1977-04-01,100.3%,0.3%,0.45565316
1977-07-01,100.3%,0.3%,0.46182272
1977-10-01,100.3%,0.3%,0.45972408
1978-01-01,100.3%,0.3%,0.45946212
1978-04-01,100.3%,0.3%,0.47537598
1978-07-01,100.3%,0.3%,0.47814298
1978-10-01,100.3%,0.3%,0.48251682
1979-01-01,100.3%,0.3%,0.48098533
1979-04-01,100.3%,0.3%,0.47984042
1979-07-01,100.3%,0.3%,0.48136147
1979-10-01,100.3%,0.3%,0.48052651
1980-01-01,100.3%,0.3%,0.47987432
1980-04-01,100.3%,0.3%,0.46807566
1980-07-01,100.3%,0.3%,0.46549103
1980-10-01,100.3%,0.3%,0.47301582
1981-01-01,100.3%,0.3%,0.48112970
1981-04-01,100.3%,0.3%,0.47552761
1981-07-01,100.3%,0.3%,0.47961526
1981-10-01,100.3%,0.3%,0.47317293
1982-01-01,100.3%,0.3%,0.46557347
1982-04-01,100.3%,0.3%,0.46541517
1982-07-01,100.3%,0.3%,0.46203851
1982-10-01,100.3%,0.3%,0.46098782
1983-01-01,100.3%,0.3%,0.46794757
1983-04-01,100.3%,0.3%,0.47609734
1983-07-01,100.3%,0.3%,0.48403531
1983-10-01,100.3%,0.3%,0.49305801
1984-01-01,100.3%,0.3%,0.50170403
1984-04-01,100.3%,0.3%,0.50865452
1984-07-01,100.3%,0.3%,0.51223905
1984-10-01,100.3%,0.3%,0.51509964
1985-01-01,100.3%,0.3%,0.51977484
1985-04-01,100.3%,0.3%,0.52289441
1985-07-01,100.3%,0.3%,0.52976379
1985-10-01,100.3%,0.3%,0.53222847
1986-01-01,100.3%,0.3%,0.53466277
1986-04-01,100.3%,0.3%,0.53581003
1986-07-01,100.3%,0.3%,0.53949670
1986-10-01,100.3%,0.3%,0.54084451
1987-01-01,100.3%,0.3%,0.54367277
1987-04-01,100.3%,0.3%,0.54795996
1987-07-01,100.3%,0.3%,0.55156776
1987-10-01,100.3%,0.3%,0.55976169
1988-01-01,100.3%,0.3%,0.56138790
1988-04-01,100.3%,0.3%,0.56765573
1988-07-01,100.3%,0.3%,0.56968096
1988-10-01,100.3%,0.3%,0.57622131
1989-01-01,100.3%,0.3%,0.58060007
1989-04-01,100.3%,0.3%,0.58455069
1989-07-01,100.3%,0.3%,0.58767108
1989-10-01,100.3%,0.3%,0.58742040
1990-01-01,100.3%,0.3%,0.58723733
1990-04-01,100.3%,0.3%,0.58853726
1990-07-01,100.3%,0.3%,0.58773455
1990-10-01,100.3%,0.3%,0.58048021
1991-01-01,100.3%,0.3%,0.57734803
1991-04-01,100.3%,0.3%,0.58056083
1991-07-01,100.3%,0.3%,0.58206653
1991-10-01,100.3%,0.3%,0.58238065
1992-01-01,100.3%,0.3%,0.58928174
1992-04-01,100.3%,0.3%,0.59387096
1992-07-01,100.3%,0.3%,0.59816334
1992-10-01,100.3%,0.3%,0.60235840
1993-01-01,100.3%,0.3%,0.60296528
1993-04-01,100.3%,0.3%,0.60459185
1993-07-01,100.3%,0.3%,0.60593603
1993-10-01,100.3%,0.3%,0.61228294
1994-01-01,100.3%,0.3%,0.61722047
1994-04-01,100.3%,0.3%,0.62396698
1994-07-01,100.3%,0.3%,0.62622497
1994-10-01,100.3%,0.3%,0.63174372
1995-01-01,100.3%,0.3%,0.63314958
1995-04-01,100.3%,0.3%,0.63374843
1995-07-01,100.3%,0.3%,0.63781644
1995-10-01,100.3%,0.3%,0.64063504
1996-01-01,100.3%,0.3%,0.64408024
1996-04-01,100.3%,0.3%,0.65241541
1996-07-01,100.3%,0.3%,0.65673502
1996-10-01,100.3%,0.3%,0.66168882
1997-01-01,100.3%,0.3%,0.66237498
1997-04-01,100.3%,0.3%,0.67151181
1997-07-01,100.3%,0.3%,0.67829757
1997-10-01,100.3%,0.3%,0.68231303
1998-01-01,100.3%,0.3%,0.68733144
1998-04-01,100.3%,0.3%,0.69169960
1998-07-01,100.3%,0.3%,0.69847369
1998-10-01,100.3%,0.3%,0.70758860
1999-01-01,100.3%,0.3%,0.71097535
1999-04-01,100.2%,0.2%,0.71514584
1999-07-01,100.3%,0.3%,0.72240032
1999-10-01,100.3%,0.3%,0.73199113
2000-01-01,100.3%,0.3%,0.72533611
2000-04-01,100.2%,0.2%,0.73666404
2000-07-01,100.2%,0.2%,0.73472302
2000-10-01,100.3%,0.3%,0.73701888
2001-01-01,100.3%,0.2%,0.73224022
2001-04-01,100.2%,0.2%,0.73450255
2001-07-01,100.2%,0.2%,0.72855695
2001-10-01,100.2%,0.2%,0.72817816
2002-01-01,100.2%,0.2%,0.73272206
2002-04-01,100.2%,0.2%,0.73453974
2002-07-01,100.2%,0.2%,0.73478229
2002-10-01,100.2%,0.2%,0.73350900
2003-01-01,100.2%,0.2%,0.73278476
2003-04-01,100.2%,0.2%,0.73621459
2003-07-01,100.2%,0.2%,0.74584095
2003-10-01,100.2%,0.2%,0.75187737
2004-01-01,100.2%,0.2%,0.75649782
2004-04-01,100.2%,0.2%,0.75984160
2004-07-01,100.2%,0.2%,0.76478173
2004-10-01,100.2%,0.2%,0.77018777
2005-01-01,100.2%,0.2%,0.77644129
2005-04-01,100.2%,0.2%,0.77811271
2005-07-01,100.2%,0.2%,0.78192891
2005-10-01,100.2%,0.2%,0.78375508
2006-01-01,100.2%,0.2%,0.79179568
2006-04-01,100.2%,0.2%,0.79194405
2006-07-01,100.2%,0.2%,0.79115246
2006-10-01,100.2%,0.2%,0.79577809
2007-01-01,100.2%,0.2%,0.79337038
2007-04-01,100.2%,0.2%,0.79708953
2007-07-01,100.2%,0.2%,0.80011810
2007-10-01,100.2%,0.2%,0.80341933
2008-01-01,100.2%,0.2%,0.80014130
2008-04-01,100.2%,0.2%,0.80409411
2008-07-01,100.2%,0.2%,0.79818467
2008-10-01,100.2%,0.2%,0.77887180
2009-01-01,100.2%,0.2%,0.77037418
2009-04-01,100.2%,0.2%,0.76672220
2009-07-01,100.2%,0.2%,0.76823433
2009-10-01,100.2%,0.2%,0.77428073
2010-01-01,100.2%,0.2%,0.77917111
2010-04-01,100.2%,0.2%,0.78380350
2010-07-01,100.2%,0.2%,0.78890631
2010-10-01,100.2%,0.2%,0.79069226
2011-01-01,100.2%,0.2%,0.79117436
2011-04-01,100.2%,0.2%,0.79399433
2011-07-01,100.2%,0.2%,0.79302280
2011-10-01,100.2%,0.2%,0.80068451
2012-01-01,100.2%,0.2%,0.80449924
2012-04-01,100.2%,0.2%,0.80677666
2012-07-01,100.2%,0.2%,0.80797483
2012-10-01,100.2%,0.2%,0.80772293
2013-01-01,100.2%,0.2%,0.81426908
2013-04-01,100.2%,0.2%,0.81412783
2013-07-01,100.2%,0.2%,0.81966365
2013-10-01,100.2%,0.2%,0.82449832
2014-01-01,100.2%,0.2%,0.82205912
2014-04-01,100.2%,0.2%,0.83125063
2014-07-01,100.2%,0.2%,0.83983606
2014-10-01,100.2%,0.2%,0.84283415
2015-01-01,100.2%,0.2%,0.84730810
2015-04-01,100.2%,0.2%,0.85114363
2015-07-01,100.2%,0.2%,0.85254782
2015-10-01,100.2%,0.2%,0.85327695
2016-01-01,100.2%,0.2%,0.85603451
2016-04-01,100.2%,0.2%,0.85771186
2016-07-01,100.2%,0.2%,0.86154576
2016-10-01,100.2%,0.2%,0.86520333
2017-01-01,100.2%,0.2%,0.87161349
2017-04-01,100.2%,0.2%,0.87569243
2017-07-01,100.2%,0.2%,0.88111551
2017-10-01,100.2%,0.2%,0.88940260
2018-01-01,100.2%,0.2%,0.89342619
2018-04-01,100.2%,0.2%,0.90033776
2018-07-01,100.2%,0.2%,0.90390450
2018-10-01,100.2%,0.2%,0.90586636
2019-01-01,100.2%,0.2%,0.91348406
2019-04-01,100.2%,0.2%,0.91967181
2019-07-01,100.2%,0.2%,0.92608538
2019-10-01,100.2%,0.2%,0.93087651
2020-01-01,100.2%,0.2%,0.92173332
2020-04-01,100.2%,0.2%,0.83650819
2020-07-01,100.2%,0.2%,0.90206561
2020-10-01,100.2%,0.2%,0.91071541
2021-01-01,100.2%,0.2%,0.92959853
2021-04-01,100.2%,0.2%,0.94271390
2021-07-01,100.2%,0.2%,0.94835480
2021-10-01,100.2%,0.2%,0.96519465
